ORBCOMM FM108 [+]

Last updated on Fri Dec 29 2023 00:02:54 GMT+0000 (Coordinated Universal Time)

1 41187U 15081J 23362.35389679 .00001505 00000+0 37495-3 0 9993 2 41187 47.0032 118.0824 0001969 350.4467 9.6380 14.56168274428584
UTC large
Height (km)
Speed (km/s)
/
Latitude / Longitude
Inclination (degrees)
Orbital Period (minutes)
Azimuth
Elevation
Range (km)
Doppler Factor

Next 0 passes for location: London (51.5072 / 0.1276)

Sorry there are no passes over London.
ORBCOMM FM108 [+]